Time,TemperatureF,DewpointF,PressureIn,WindDirection,WindDirectionDegrees,WindSpeedMPH,WindSpeedGustMPH,Humidity,HourlyPrecipIn,Conditions,Clouds,dailyrainin,SoftwareType,DateUTC
2013-07-25 00:02:00,67.1,62.1,29.74,NNE,22,3.7,-999.0,84,-99.99,,,0.00,Acu-Link.com,2013-07-25 04:02:00,
2013-07-25 00:17:00,66.9,61.9,29.74,NNE,22,3.2,-999.0,84,-99.99,,,0.00,Acu-Link.com,2013-07-25 04:17:00,
2013-07-25 00:33:00,66.7,61.4,29.74,NNW,337,4.2,-999.0,83,-99.99,,,0.00,Acu-Link.com,2013-07-25 04:33:00,
2013-07-25 00:48:00,66.2,61.2,29.74,North,0,3.2,-999.0,84,-99.99,,,0.00,Acu-Link.com,2013-07-25 04:48:00,
2013-07-25 01:03:00,65.5,60.5,29.75,ENE,67,3.7,-999.0,84,-99.99,,,0.00,Acu-Link.com,2013-07-25 05:03:00,
2013-07-25 01:18:00,65.1,60.1,29.75,NW,315,2.2,-999.0,84,-99.99,,,0.00,Acu-Link.com,2013-07-25 05:18:00,
2013-07-25 01:34:00,64.9,59.9,29.75,ENE,67,3.2,-999.0,84,-99.99,,,0.00,Acu-Link.com,2013-07-25 05:34:00,
2013-07-25 01:49:00,64.2,59.6,29.74,NE,45,3.2,-999.0,85,-99.99,,,0.00,Acu-Link.com,2013-07-25 05:49:00,
2013-07-25 02:04:00,63.9,59.3,29.75,ENE,67,2.2,-999.0,85,-99.99,,,0.00,Acu-Link.com,2013-07-25 06:04:00,
2013-07-25 02:20:00,63.7,59.1,29.75,ENE,67,2.7,-999.0,85,-99.99,,,0.00,Acu-Link.com,2013-07-25 06:20:00,
2013-07-25 02:35:00,63.7,59.1,29.75,NNE,22,3.7,-999.0,85,-99.99,,,0.00,Acu-Link.com,2013-07-25 06:35:00,
2013-07-25 02:50:00,63.3,58.7,29.75,NE,45,2.7,-999.0,85,-99.99,,,0.00,Acu-Link.com,2013-07-25 06:50:00,
2013-07-25 03:05:00,62.8,58.5,29.74,ENE,67,2.7,-999.0,86,-99.99,,,0.00,Acu-Link.com,2013-07-25 07:05:00,
2013-07-25 03:21:00,62.4,58.5,29.75,East,90,3.7,-999.0,87,-99.99,,,0.00,Acu-Link.com,2013-07-25 07:21:00,
2013-07-25 03:36:00,61.9,58.3,29.75,ENE,67,2.7,-999.0,88,-99.99,,,0.00,Acu-Link.com,2013-07-25 07:36:00,
2013-07-25 03:51:00,61.5,57.9,29.75,NE,45,2.7,-999.0,88,-99.99,,,0.00,Acu-Link.com,2013-07-25 07:51:00,
2013-07-25 04:07:00,61.3,58.0,29.75,NNE,22,2.2,-999.0,89,-99.99,,,0.00,Acu-Link.com,2013-07-25 08:07:00,
2013-07-25 04:22:00,61.2,57.9,29.75,NE,45,2.2,-999.0,89,-99.99,,,0.00,Acu-Link.com,2013-07-25 08:22:00,
2013-07-25 04:37:00,61.0,58.0,29.75,ENE,67,2.2,-999.0,90,-99.99,,,0.00,Acu-Link.com,2013-07-25 08:37:00,
2013-07-25 04:53:00,60.8,57.8,29.75,East,90,2.2,-999.0,90,-99.99,,,0.00,Acu-Link.com,2013-07-25 08:53:00,
2013-07-25 05:08:00,60.6,57.6,29.75,NNE,22,2.2,-999.0,90,-99.99,,,0.00,Acu-Link.com,2013-07-25 09:08:00,
2013-07-25 05:23:00,60.1,57.5,29.75,ENE,67,2.2,-999.0,91,-99.99,,,0.00,Acu-Link.com,2013-07-25 09:23:00,
2013-07-25 05:38:00,60.1,57.5,29.76,ENE,67,2.2,-999.0,91,-99.99,,,0.00,Acu-Link.com,2013-07-25 09:38:00,
2013-07-25 05:53:00,59.9,57.3,29.77,East,90,0.0,-999.0,91,-99.99,,,0.00,Acu-Link.com,2013-07-25 09:53:00,
2013-07-25 06:08:00,59.5,57.2,29.76,ENE,67,0.0,-999.0,92,-99.99,,,0.00,Acu-Link.com,2013-07-25 10:08:00,
2013-07-25 06:24:00,59.5,57.5,29.77,NE,45,0.0,-999.0,93,-99.99,,,0.00,Acu-Link.com,2013-07-25 10:24:00,
2013-07-25 06:39:00,59.4,57.4,29.78,East,90,2.2,-999.0,93,-99.99,,,0.00,Acu-Link.com,2013-07-25 10:39:00,
2013-07-25 06:54:00,59.4,57.4,29.78,ENE,67,1.7,-999.0,93,-99.99,,,0.00,Acu-Link.com,2013-07-25 10:54:00,
2013-07-25 07:10:00,59.7,57.4,29.79,ENE,67,2.2,-999.0,92,-99.99,,,0.00,Acu-Link.com,2013-07-25 11:10:00,
2013-07-25 07:25:00,60.3,58.0,29.78,ESE,112,2.7,-999.0,92,-99.99,,,0.00,Acu-Link.com,2013-07-25 11:25:00,
2013-07-25 07:40:00,61.2,58.5,29.79,East,90,2.7,-999.0,91,-99.99,,,0.00,Acu-Link.com,2013-07-25 11:40:00,
2013-07-25 07:56:00,61.9,58.6,29.79,NNE,22,2.7,-999.0,89,-99.99,,,0.00,Acu-Link.com,2013-07-25 11:56:00,
2013-07-25 08:11:00,62.4,58.8,29.80,ENE,67,3.2,-999.0,88,-99.99,,,0.00,Acu-Link.com,2013-07-25 12:11:00,
2013-07-25 08:26:00,63.7,59.8,29.80,NE,45,3.2,-999.0,87,-99.99,,,0.00,Acu-Link.com,2013-07-25 12:26:00,
2013-07-25 08:42:00,63.9,59.3,29.80,ENE,67,3.2,-999.0,85,-99.99,,,0.00,Acu-Link.com,2013-07-25 12:42:00,
2013-07-25 08:57:00,64.8,60.2,29.81,ENE,67,3.2,-999.0,85,-99.99,,,0.00,Acu-Link.com,2013-07-25 12:57:00,
2013-07-25 09:12:00,65.1,60.1,29.81,East,90,4.7,-999.0,84,-99.99,,,0.00,Acu-Link.com,2013-07-25 13:12:00,
2013-07-25 09:27:00,66.2,60.5,29.81,NE,45,5.3,-999.0,82,-99.99,,,0.00,Acu-Link.com,2013-07-25 13:27:00,
2013-07-25 09:43:00,67.1,61.1,29.81,NNE,22,3.7,-999.0,81,-99.99,,,0.00,Acu-Link.com,2013-07-25 13:43:00,
2013-07-25 09:58:00,67.6,61.6,29.81,NE,45,3.2,-999.0,81,-99.99,,,0.00,Acu-Link.com,2013-07-25 13:58:00,
2013-07-25 10:13:00,67.8,61.4,29.81,NNW,337,2.2,-999.0,80,-99.99,,,0.00,Acu-Link.com,2013-07-25 14:13:00,
2013-07-25 10:28:00,68.7,61.6,29.81,ENE,67,4.7,-999.0,78,-99.99,,,0.00,Acu-Link.com,2013-07-25 14:28:00,
2013-07-25 10:43:00,69.4,61.9,29.81,ENE,67,2.2,-999.0,77,-99.99,,,0.00,Acu-Link.com,2013-07-25 14:43:00,
2013-07-25 10:59:00,70.2,62.6,29.81,ENE,67,4.7,-999.0,77,-99.99,,,0.00,Acu-Link.com,2013-07-25 14:59:00,
2013-07-25 11:14:00,71.2,63.2,29.82,NE,45,2.2,-999.0,76,-99.99,,,0.00,Acu-Link.com,2013-07-25 15:14:00,
2013-07-25 11:29:00,70.7,62.4,29.83,West,270,3.2,-999.0,75,-99.99,,,0.00,Acu-Link.com,2013-07-25 15:29:00,
2013-07-25 11:44:00,73.2,62.0,29.83,NNE,22,7.3,-999.0,68,-99.99,,,0.00,Acu-Link.com,2013-07-25 15:44:00,
2013-07-25 12:00:00,73.2,61.6,29.84,WNW,292,2.2,-999.0,67,-99.99,,,0.00,Acu-Link.com,2013-07-25 16:00:00,
2013-07-25 12:15:00,73.4,61.8,29.84,NE,45,2.7,-999.0,67,-99.99,,,0.00,Acu-Link.com,2013-07-25 16:15:00,
2013-07-25 12:31:00,73.2,62.0,29.84,East,90,2.2,-999.0,68,-99.99,,,0.00,Acu-Link.com,2013-07-25 16:31:00,
2013-07-25 12:46:00,72.1,60.5,29.84,NE,45,6.3,-999.0,67,-99.99,,,0.00,Acu-Link.com,2013-07-25 16:46:00,
2013-07-25 13:17:00,73.0,61.0,29.84,East,90,4.7,-999.0,66,-99.99,,,0.00,Acu-Link.com,2013-07-25 17:17:00,
2013-07-25 13:32:00,74.3,61.3,29.84,SSE,157,2.7,-999.0,64,-99.99,,,0.00,Acu-Link.com,2013-07-25 17:32:00,
2013-07-25 13:47:00,76.3,62.3,29.83,NE,45,3.7,-999.0,62,-99.99,,,0.00,Acu-Link.com,2013-07-25 17:47:00,
2013-07-25 14:03:00,73.8,60.4,29.83,ENE,67,4.7,-999.0,63,-99.99,,,0.00,Acu-Link.com,2013-07-25 18:03:00,
2013-07-25 14:18:00,73.8,60.8,29.84,NNE,22,3.7,-999.0,64,-99.99,,,0.00,Acu-Link.com,2013-07-25 18:18:00,
2013-07-25 14:33:00,77.2,63.6,29.83,ENE,67,4.2,-999.0,63,-99.99,,,0.00,Acu-Link.com,2013-07-25 18:33:00,
2013-07-25 14:48:00,75.7,61.3,29.84,NE,45,6.3,-999.0,61,-99.99,,,0.00,Acu-Link.com,2013-07-25 18:48:00,
2013-07-25 15:03:00,74.3,61.3,29.82,ENE,67,2.2,-999.0,64,-99.99,,,0.00,Acu-Link.com,2013-07-25 19:03:00,
2013-07-25 15:19:00,75.6,61.6,29.84,NE,45,6.8,-999.0,62,-99.99,,,0.00,Acu-Link.com,2013-07-25 19:19:00,
2013-07-25 15:34:00,75.7,62.2,29.84,NNE,22,2.7,-999.0,63,-99.99,,,0.00,Acu-Link.com,2013-07-25 19:34:00,
2013-07-25 15:49:00,76.3,60.9,29.83,East,90,4.2,-999.0,59,-99.99,,,0.00,Acu-Link.com,2013-07-25 19:49:00,
2013-07-25 16:05:00,76.1,61.2,29.83,NNW,337,3.7,-999.0,60,-99.99,,,0.00,Acu-Link.com,2013-07-25 20:05:00,
2013-07-25 16:20:00,76.6,61.7,29.83,East,90,4.2,-999.0,60,-99.99,,,0.00,Acu-Link.com,2013-07-25 20:20:00,
2013-07-25 16:36:00,75.4,61.0,29.83,ENE,67,1.1,-999.0,61,-99.99,,,0.00,Acu-Link.com,2013-07-25 20:36:00,
2013-07-25 16:51:00,77.5,62.5,29.83,ESE,112,3.7,-999.0,60,-99.99,,,0.00,Acu-Link.com,2013-07-25 20:51:00,
2013-07-25 17:06:00,75.2,61.3,29.84,ENE,67,2.2,-999.0,62,-99.99,,,0.00,Acu-Link.com,2013-07-25 21:06:00,
2013-07-25 17:21:00,76.1,62.1,29.84,SW,225,2.7,-999.0,62,-99.99,,,0.00,Acu-Link.com,2013-07-25 21:21:00,
2013-07-25 17:52:00,76.6,62.6,29.83,ENE,67,3.7,-999.0,62,-99.99,,,0.00,Acu-Link.com,2013-07-25 21:52:00,
2013-07-25 18:07:00,78.3,63.3,29.83,NNE,22,2.7,-999.0,60,-99.99,,,0.00,Acu-Link.com,2013-07-25 22:07:00,
2013-07-25 18:22:00,78.1,61.6,29.83,NE,45,3.7,-999.0,57,-99.99,,,0.00,Acu-Link.com,2013-07-25 22:22:00,
2013-07-25 18:37:00,76.5,61.1,29.83,ESE,112,2.7,-999.0,59,-99.99,,,0.00,Acu-Link.com,2013-07-25 22:37:00,
2013-07-25 18:53:00,75.6,61.2,29.83,ENE,67,3.7,-999.0,61,-99.99,,,0.00,Acu-Link.com,2013-07-25 22:53:00,
2013-07-25 19:08:00,75.0,61.1,29.84,East,90,3.7,-999.0,62,-99.99,,,0.00,Acu-Link.com,2013-07-25 23:08:00,
2013-07-25 19:23:00,75.4,61.5,29.84,NW,315,2.2,-999.0,62,-99.99,,,0.00,Acu-Link.com,2013-07-25 23:23:00,
2013-07-25 19:38:00,75.0,61.1,29.84,North,0,2.7,-999.0,62,-99.99,,,0.00,Acu-Link.com,2013-07-25 23:38:00,
2013-07-25 19:53:00,74.5,61.1,29.84,NE,45,2.2,-999.0,63,-99.99,,,0.00,Acu-Link.com,2013-07-25 23:53:00,
2013-07-25 20:08:00,73.6,61.1,29.84,NE,45,0.0,-999.0,65,-99.99,,,0.00,Acu-Link.com,2013-07-26 00:08:00,
2013-07-25 20:24:00,72.0,60.8,29.84,East,90,1.7,-999.0,68,-99.99,,,0.00,Acu-Link.com,2013-07-26 00:24:00,
2013-07-25 20:39:00,70.7,60.4,29.84,NE,45,1.7,-999.0,70,-99.99,,,0.00,Acu-Link.com,2013-07-26 00:39:00,
2013-07-25 20:54:00,70.2,59.9,29.84,ENE,67,0.0,-999.0,70,-99.99,,,0.00,Acu-Link.com,2013-07-26 00:54:00,
2013-07-25 21:09:00,69.4,60.0,29.84,ENE,67,0.0,-999.0,72,-99.99,,,0.00,Acu-Link.com,2013-07-26 01:09:00,
2013-07-25 21:24:00,68.7,60.1,29.84,ENE,67,2.7,-999.0,74,-99.99,,,0.00,Acu-Link.com,2013-07-26 01:24:00,
2013-07-25 21:40:00,68.2,60.0,29.85,ENE,67,2.2,-999.0,75,-99.99,,,0.00,Acu-Link.com,2013-07-26 01:40:00,
2013-07-25 21:55:00,67.5,59.3,29.85,ENE,67,1.7,-999.0,75,-99.99,,,0.00,Acu-Link.com,2013-07-26 01:55:00,
2013-07-25 22:10:00,66.7,59.3,29.85,ENE,67,0.0,-999.0,77,-99.99,,,0.00,Acu-Link.com,2013-07-26 02:10:00,
2013-07-25 22:25:00,66.2,59.1,29.86,ENE,67,0.0,-999.0,78,-99.99,,,0.00,Acu-Link.com,2013-07-26 02:25:00,
2013-07-25 22:40:00,65.5,58.8,29.86,ENE,67,0.0,-999.0,79,-99.99,,,0.00,Acu-Link.com,2013-07-26 02:40:00,
2013-07-25 22:56:00,64.9,58.9,29.86,ENE,67,0.0,-999.0,81,-99.99,,,0.00,Acu-Link.com,2013-07-26 02:56:00,
2013-07-25 23:11:00,64.2,58.2,29.86,ENE,67,0.0,-999.0,81,-99.99,,,0.00,Acu-Link.com,2013-07-26 03:11:00,
2013-07-25 23:26:00,63.7,58.4,29.86,ENE,67,0.0,-999.0,83,-99.99,,,0.00,Acu-Link.com,2013-07-26 03:26:00,
2013-07-25 23:42:00,63.1,58.5,29.86,ENE,67,0.0,-999.0,85,-99.99,,,0.00,Acu-Link.com,2013-07-26 03:42:00,
2013-07-25 23:57:00,62.8,58.2,29.86,ENE,67,0.0,-999.0,85,-99.99,,,0.00,Acu-Link.com,2013-07-26 03:57:00,